Year,Month,Day,Hour,Minute,Value (Times are PST for temperature in C)
2007,07,10,00,00,20.40
2007,07,10,00,01,20.40
2007,07,10,00,02,20.40
2007,07,10,00,03,20.40
2007,07,10,00,04,20.40
2007,07,10,00,05,20.40
2007,07,10,00,06,20.40
2007,07,10,00,07,20.40
2007,07,10,00,08,20.30
2007,07,10,00,09,20.30
2007,07,10,00,10,20.30
2007,07,10,00,11,20.30
2007,07,10,00,12,20.30
2007,07,10,00,13,20.30
2007,07,10,00,14,20.30
2007,07,10,00,15,20.20
2007,07,10,00,16,20.20
2007,07,10,00,17,20.10
2007,07,10,00,18,20.00
2007,07,10,00,19,19.90
2007,07,10,00,20,19.80
2007,07,10,00,21,19.60
2007,07,10,00,22,19.50
2007,07,10,00,23,19.30
2007,07,10,00,24,19.20
2007,07,10,00,25,19.00
2007,07,10,00,26,18.80
2007,07,10,00,27,18.70
2007,07,10,00,28,18.60
2007,07,10,00,29,18.50
2007,07,10,00,30,18.40
2007,07,10,00,31,18.30
2007,07,10,00,32,18.30
2007,07,10,00,33,18.20
2007,07,10,00,34,18.20
2007,07,10,00,35,18.20
2007,07,10,00,36,18.10
2007,07,10,00,37,18.00
2007,07,10,00,38,18.00
2007,07,10,00,39,17.90
2007,07,10,00,40,17.90
2007,07,10,00,41,17.90
2007,07,10,00,42,17.90
2007,07,10,00,43,17.80
2007,07,10,00,44,17.80
2007,07,10,00,45,17.80
2007,07,10,00,46,17.80
2007,07,10,00,47,17.80
2007,07,10,00,48,17.80
2007,07,10,00,49,17.80
2007,07,10,00,50,17.90
2007,07,10,00,51,18.00
2007,07,10,00,52,18.10
2007,07,10,00,53,18.20
2007,07,10,00,54,18.20
2007,07,10,00,55,18.20
2007,07,10,00,56,18.20
2007,07,10,00,57,18.20
2007,07,10,00,58,18.10
2007,07,10,00,59,18.10
2007,07,10,01,00,18.10
2007,07,10,01,01,18.20
2007,07,10,01,02,18.20
2007,07,10,01,03,18.20
2007,07,10,01,04,18.30
2007,07,10,01,05,18.30
2007,07,10,01,06,18.20
2007,07,10,01,07,18.20
2007,07,10,01,08,18.20
2007,07,10,01,09,18.10
2007,07,10,01,10,18.10
2007,07,10,01,11,18.00
2007,07,10,01,12,17.90
2007,07,10,01,13,17.90
2007,07,10,01,14,17.80
2007,07,10,01,15,17.70
2007,07,10,01,16,17.70
2007,07,10,01,17,17.60
2007,07,10,01,18,17.60
2007,07,10,01,19,17.60
2007,07,10,01,20,17.70
2007,07,10,01,21,17.70
2007,07,10,01,22,17.70
2007,07,10,01,23,17.70
2007,07,10,01,24,17.70
2007,07,10,01,25,17.70
2007,07,10,01,26,17.60
2007,07,10,01,27,17.60
2007,07,10,01,28,17.60
2007,07,10,01,29,17.50
2007,07,10,01,30,17.40
2007,07,10,01,31,17.40
2007,07,10,01,32,17.30
2007,07,10,01,33,17.30
2007,07,10,01,34,17.20
2007,07,10,01,35,17.10
2007,07,10,01,36,17.10
2007,07,10,01,37,17.00
2007,07,10,01,38,17.00
2007,07,10,01,39,16.90
2007,07,10,01,40,16.90
2007,07,10,01,41,16.80
2007,07,10,01,42,16.80
2007,07,10,01,43,16.80
2007,07,10,01,44,16.70
2007,07,10,01,45,16.70
2007,07,10,01,46,16.60
2007,07,10,01,47,16.60
2007,07,10,01,48,16.60
2007,07,10,01,49,16.60
2007,07,10,01,50,16.50
2007,07,10,01,51,16.50
2007,07,10,01,52,16.50
2007,07,10,01,53,16.40
2007,07,10,01,54,16.40
2007,07,10,01,55,16.40
2007,07,10,01,56,16.40
2007,07,10,01,57,16.40
2007,07,10,01,58,16.40
2007,07,10,01,59,16.40
2007,07,10,02,00,16.40
2007,07,10,02,01,16.40
2007,07,10,02,02,16.40
2007,07,10,02,03,16.40
2007,07,10,02,04,16.30
2007,07,10,02,05,16.30
2007,07,10,02,06,16.30
2007,07,10,02,07,16.30
2007,07,10,02,08,16.20
2007,07,10,02,09,16.20
2007,07,10,02,10,16.20
2007,07,10,02,11,16.20
2007,07,10,02,12,16.20
2007,07,10,02,13,16.20
2007,07,10,02,14,16.20
2007,07,10,02,15,16.20
2007,07,10,02,16,16.20
2007,07,10,02,17,16.20
2007,07,10,02,18,16.20
2007,07,10,02,19,16.20
2007,07,10,02,20,16.20
2007,07,10,02,21,16.20
2007,07,10,02,22,16.20
2007,07,10,02,23,16.20
2007,07,10,02,24,16.20
2007,07,10,02,25,16.20
2007,07,10,02,26,16.20
2007,07,10,02,27,16.20
2007,07,10,02,28,16.20
2007,07,10,02,29,16.10
2007,07,10,02,30,16.10
2007,07,10,02,31,16.10
2007,07,10,02,32,16.10
2007,07,10,02,33,16.10
2007,07,10,02,34,16.00
2007,07,10,02,35,16.00
2007,07,10,02,36,15.90
2007,07,10,02,37,15.90
2007,07,10,02,38,15.90
2007,07,10,02,39,15.80
2007,07,10,02,40,15.80
2007,07,10,02,41,15.80
2007,07,10,02,42,15.80
2007,07,10,02,43,15.80
2007,07,10,02,44,15.80
2007,07,10,02,45,15.80
2007,07,10,02,46,15.70
2007,07,10,02,47,15.70
2007,07,10,02,48,15.70
2007,07,10,02,49,15.60
2007,07,10,02,50,15.60
2007,07,10,02,51,15.60
2007,07,10,02,52,15.60
2007,07,10,02,53,15.50
2007,07,10,02,54,15.50
2007,07,10,02,55,15.50
2007,07,10,02,56,15.50
2007,07,10,02,57,15.40
2007,07,10,02,58,15.40
2007,07,10,02,59,15.40
2007,07,10,03,00,15.40
2007,07,10,03,01,15.40
2007,07,10,03,02,15.40
2007,07,10,03,03,15.40
2007,07,10,03,04,15.40
2007,07,10,03,05,15.30
2007,07,10,03,06,15.30
2007,07,10,03,07,15.30
2007,07,10,03,08,15.30
2007,07,10,03,09,15.30
2007,07,10,03,10,15.30
2007,07,10,03,11,15.30
2007,07,10,03,12,15.30
2007,07,10,03,13,15.30
2007,07,10,03,14,15.30
2007,07,10,03,15,15.30
2007,07,10,03,16,15.20
2007,07,10,03,17,15.20
2007,07,10,03,18,15.30
2007,07,10,03,19,15.30
2007,07,10,03,20,15.30
2007,07,10,03,21,15.30
2007,07,10,03,22,15.20
2007,07,10,03,23,15.20
2007,07,10,03,24,15.20
2007,07,10,03,25,15.20
2007,07,10,03,26,15.20
2007,07,10,03,27,15.20
2007,07,10,03,28,15.20
2007,07,10,03,29,15.20
2007,07,10,03,30,15.20
2007,07,10,03,31,15.20
2007,07,10,03,32,15.20
2007,07,10,03,33,15.20
2007,07,10,03,34,15.20
2007,07,10,03,35,15.20
2007,07,10,03,36,15.20
2007,07,10,03,37,15.20
2007,07,10,03,38,15.20
2007,07,10,03,39,15.20
2007,07,10,03,40,15.20
2007,07,10,03,41,15.20
2007,07,10,03,42,15.10
2007,07,10,03,43,15.10
2007,07,10,03,44,15.10
2007,07,10,03,45,15.10
2007,07,10,03,46,15.10
2007,07,10,03,47,15.10
2007,07,10,03,48,15.10
2007,07,10,03,49,15.10
2007,07,10,03,50,15.10
2007,07,10,03,51,15.10
2007,07,10,03,52,15.10
2007,07,10,03,53,15.10
2007,07,10,03,54,15.10
2007,07,10,03,55,15.10
2007,07,10,03,56,15.20
2007,07,10,03,57,15.20
2007,07,10,03,58,15.20
2007,07,10,03,59,15.20
2007,07,10,04,00,15.20
2007,07,10,04,01,15.10
2007,07,10,04,02,15.10
2007,07,10,04,03,15.10
2007,07,10,04,04,15.10
2007,07,10,04,05,15.00
2007,07,10,04,06,15.00
2007,07,10,04,07,15.00
2007,07,10,04,08,15.00
2007,07,10,04,09,15.00
2007,07,10,04,10,15.00
2007,07,10,04,11,15.00
2007,07,10,04,12,15.00
2007,07,10,04,13,15.00
2007,07,10,04,14,15.00
2007,07,10,04,15,15.00
2007,07,10,04,16,15.00
2007,07,10,04,17,15.00
2007,07,10,04,18,15.00
2007,07,10,04,19,15.10
2007,07,10,04,20,15.10
2007,07,10,04,21,15.20
2007,07,10,04,22,15.20
2007,07,10,04,23,15.20
2007,07,10,04,24,15.20
2007,07,10,04,25,15.20
2007,07,10,04,26,15.20
2007,07,10,04,27,15.30
2007,07,10,04,28,15.30
2007,07,10,04,29,15.30
2007,07,10,04,30,15.30
2007,07,10,04,31,15.30
2007,07,10,04,32,15.30
2007,07,10,04,33,15.40
2007,07,10,04,34,15.40
2007,07,10,04,35,15.40
2007,07,10,04,36,15.40
2007,07,10,04,37,15.40
2007,07,10,04,38,15.30
2007,07,10,04,39,15.30
2007,07,10,04,40,15.30
2007,07,10,04,41,15.30
2007,07,10,04,42,15.30
2007,07,10,04,43,15.30
2007,07,10,04,44,15.30
2007,07,10,04,45,15.30
2007,07,10,04,46,15.30
2007,07,10,04,47,15.30
2007,07,10,04,48,15.30
2007,07,10,04,49,15.30
2007,07,10,04,50,15.30
2007,07,10,04,51,15.20
2007,07,10,04,52,15.20
2007,07,10,04,53,15.20
2007,07,10,04,54,15.20
2007,07,10,04,55,15.10
2007,07,10,04,56,15.10
2007,07,10,04,57,15.10
2007,07,10,04,58,15.00
2007,07,10,04,59,15.00
2007,07,10,05,00,15.00
2007,07,10,05,01,15.00
2007,07,10,05,02,15.00
2007,07,10,05,03,15.00
2007,07,10,05,04,15.00
2007,07,10,05,05,15.00
2007,07,10,05,06,15.00
2007,07,10,05,07,15.00
2007,07,10,05,08,15.00
2007,07,10,05,09,15.00
2007,07,10,05,10,15.00
2007,07,10,05,11,15.00
2007,07,10,05,12,15.00
2007,07,10,05,13,15.00
2007,07,10,05,14,14.90
2007,07,10,05,15,14.80
2007,07,10,05,16,14.80
2007,07,10,05,17,14.80
2007,07,10,05,18,14.80
2007,07,10,05,19,14.70
2007,07,10,05,20,14.70
2007,07,10,05,21,14.70
2007,07,10,05,22,14.70
2007,07,10,05,23,14.70
2007,07,10,05,24,14.60
2007,07,10,05,25,14.60
2007,07,10,05,26,14.60
2007,07,10,05,27,14.60
2007,07,10,05,28,14.60
2007,07,10,05,29,14.60
2007,07,10,05,30,14.60
2007,07,10,05,31,14.60
2007,07,10,05,32,14.60
2007,07,10,05,33,14.60
2007,07,10,05,34,14.60
2007,07,10,05,35,14.50
2007,07,10,05,36,14.50
2007,07,10,05,37,14.50
2007,07,10,05,38,14.50
2007,07,10,05,39,14.50
2007,07,10,05,40,14.50
2007,07,10,05,41,14.50
2007,07,10,05,42,14.40
2007,07,10,05,43,14.40
2007,07,10,05,44,14.40
2007,07,10,05,45,14.30
2007,07,10,05,46,14.30
2007,07,10,05,47,14.30
2007,07,10,05,48,14.30
2007,07,10,05,49,14.20
2007,07,10,05,50,14.20
2007,07,10,05,51,14.20
2007,07,10,05,52,14.20
2007,07,10,05,53,14.30
2007,07,10,05,54,14.30
2007,07,10,05,55,14.30
2007,07,10,05,56,14.30
2007,07,10,05,57,14.30
2007,07,10,05,58,14.30
2007,07,10,05,59,14.30
2007,07,10,06,00,14.40
2007,07,10,06,01,14.40
2007,07,10,06,02,14.30
2007,07,10,06,03,14.30
2007,07,10,06,04,14.40
2007,07,10,06,05,14.40
2007,07,10,06,06,14.40
2007,07,10,06,07,14.40
2007,07,10,06,08,14.50
2007,07,10,06,09,14.50
2007,07,10,06,10,14.50
2007,07,10,06,11,14.50
2007,07,10,06,12,14.60
2007,07,10,06,13,14.60
2007,07,10,06,14,14.60
2007,07,10,06,15,14.60
2007,07,10,06,16,14.60
2007,07,10,06,17,14.70
2007,07,10,06,18,14.70
2007,07,10,06,19,14.80
2007,07,10,06,20,14.80
2007,07,10,06,21,14.80
2007,07,10,06,22,14.80
2007,07,10,06,23,14.80
2007,07,10,06,24,14.80
2007,07,10,06,25,14.90
2007,07,10,06,26,15.00
2007,07,10,06,27,15.00
2007,07,10,06,28,15.00
2007,07,10,06,29,15.00
2007,07,10,06,30,15.00
2007,07,10,06,31,15.00
2007,07,10,06,32,15.00
2007,07,10,06,33,15.00
2007,07,10,06,34,15.00
2007,07,10,06,35,15.00
2007,07,10,06,36,15.00
2007,07,10,06,37,15.10
2007,07,10,06,38,15.20
2007,07,10,06,39,15.20
2007,07,10,06,40,15.30
2007,07,10,06,41,15.40
2007,07,10,06,42,15.50
2007,07,10,06,43,15.50
2007,07,10,06,44,15.60
2007,07,10,06,45,15.60
2007,07,10,06,46,15.70
2007,07,10,06,47,15.70
2007,07,10,06,48,15.70
2007,07,10,06,49,15.80
2007,07,10,06,50,15.80
2007,07,10,06,51,15.80
2007,07,10,06,52,15.90
2007,07,10,06,53,15.90
2007,07,10,06,54,15.90
2007,07,10,06,55,16.00
2007,07,10,06,56,16.00
2007,07,10,06,57,16.10
2007,07,10,06,58,16.10
2007,07,10,06,59,16.10
2007,07,10,07,00,16.20
2007,07,10,07,01,16.30
2007,07,10,07,02,16.40
2007,07,10,07,03,16.50
2007,07,10,07,04,16.60
2007,07,10,07,05,16.70
2007,07,10,07,06,16.70
2007,07,10,07,07,16.80
2007,07,10,07,08,16.90
2007,07,10,07,09,16.90
2007,07,10,07,10,17.00
2007,07,10,07,11,17.10
2007,07,10,07,12,17.20
2007,07,10,07,13,17.20
2007,07,10,07,14,17.30
2007,07,10,07,15,17.30
2007,07,10,07,16,17.40
2007,07,10,07,17,17.50
2007,07,10,07,18,17.60
2007,07,10,07,19,17.80
2007,07,10,07,20,17.90
2007,07,10,07,21,18.10
2007,07,10,07,22,18.20
2007,07,10,07,23,18.40
2007,07,10,07,24,18.50
2007,07,10,07,25,18.60
2007,07,10,07,26,18.80
2007,07,10,07,27,18.80
2007,07,10,07,28,18.90
2007,07,10,07,29,19.00
2007,07,10,07,30,19.10
2007,07,10,07,31,19.10
2007,07,10,07,32,19.20
2007,07,10,07,33,19.20
2007,07,10,07,34,19.30
2007,07,10,07,35,19.30
2007,07,10,07,36,19.30
2007,07,10,07,37,19.30
2007,07,10,07,38,19.40
2007,07,10,07,39,19.40
2007,07,10,07,40,19.40
2007,07,10,07,41,19.40
2007,07,10,07,42,19.40
2007,07,10,07,43,19.50
2007,07,10,07,44,19.50
2007,07,10,07,45,19.50
2007,07,10,07,46,19.50
2007,07,10,07,47,19.50
2007,07,10,07,48,19.60
2007,07,10,07,49,19.60
2007,07,10,07,50,19.60
2007,07,10,07,51,19.60
2007,07,10,07,52,19.70
2007,07,10,07,53,19.70
2007,07,10,07,54,19.80
2007,07,10,07,55,19.80
2007,07,10,07,56,19.80
2007,07,10,07,57,19.90
2007,07,10,07,58,19.90
2007,07,10,07,59,19.90
2007,07,10,08,00,19.90
2007,07,10,08,01,20.00
2007,07,10,08,02,20.00
2007,07,10,08,03,20.00
2007,07,10,08,04,20.10
2007,07,10,08,05,20.10
2007,07,10,08,06,20.10
2007,07,10,08,07,20.20
2007,07,10,08,08,20.20
2007,07,10,08,09,20.30
2007,07,10,08,10,20.30
2007,07,10,08,11,20.30
2007,07,10,08,12,20.40
2007,07,10,08,13,20.50
2007,07,10,08,14,20.60
2007,07,10,08,15,20.70
2007,07,10,08,16,20.70
2007,07,10,08,17,20.70
2007,07,10,08,18,20.70
2007,07,10,08,19,20.80
2007,07,10,08,20,20.80
2007,07,10,08,21,20.70
2007,07,10,08,22,20.60
2007,07,10,08,23,20.50
2007,07,10,08,24,20.40
2007,07,10,08,25,20.40
2007,07,10,08,26,20.30
2007,07,10,08,27,20.20
2007,07,10,08,28,20.10
2007,07,10,08,29,20.00
2007,07,10,08,30,20.00
2007,07,10,08,31,20.00
2007,07,10,08,32,20.00
2007,07,10,08,33,20.10
2007,07,10,08,34,20.20
2007,07,10,08,35,20.20
2007,07,10,08,36,20.20
2007,07,10,08,37,20.20
2007,07,10,08,38,20.20
2007,07,10,08,39,20.20
2007,07,10,08,40,20.30
2007,07,10,08,41,20.30
2007,07,10,08,42,20.30
2007,07,10,08,43,20.40
2007,07,10,08,44,20.50
2007,07,10,08,45,20.60
2007,07,10,08,46,20.60
2007,07,10,08,47,20.70
2007,07,10,08,48,20.80
2007,07,10,08,49,20.80
2007,07,10,08,50,20.90
2007,07,10,08,51,21.00
2007,07,10,08,52,21.10
2007,07,10,08,53,21.20
2007,07,10,08,54,21.30
2007,07,10,08,55,21.40
2007,07,10,08,56,21.40
2007,07,10,08,57,21.40
2007,07,10,08,58,21.40
2007,07,10,08,59,21.40
2007,07,10,09,00,21.50
2007,07,10,09,01,21.60
2007,07,10,09,02,21.60
2007,07,10,09,03,21.60
2007,07,10,09,04,21.60
2007,07,10,09,05,21.60
2007,07,10,09,06,21.60
2007,07,10,09,07,21.60
2007,07,10,09,08,21.50
2007,07,10,09,09,21.40
2007,07,10,09,10,21.40
2007,07,10,09,11,21.40
2007,07,10,09,12,21.30
2007,07,10,09,13,21.30
2007,07,10,09,14,21.30
2007,07,10,09,15,21.30
2007,07,10,09,16,21.30
2007,07,10,09,17,21.30
2007,07,10,09,18,21.30
2007,07,10,09,19,21.30
2007,07,10,09,20,21.40
2007,07,10,09,21,21.40
2007,07,10,09,22,21.40
2007,07,10,09,23,21.40
2007,07,10,09,24,21.40
2007,07,10,09,25,21.50
2007,07,10,09,26,21.40
2007,07,10,09,27,21.40
2007,07,10,09,28,21.40
2007,07,10,09,29,21.40
2007,07,10,09,30,21.50
2007,07,10,09,31,21.50
2007,07,10,09,32,21.60
2007,07,10,09,33,21.60
2007,07,10,09,34,21.50
2007,07,10,09,35,21.50
2007,07,10,09,36,21.40
2007,07,10,09,37,21.40
2007,07,10,09,38,21.50
2007,07,10,09,39,21.40
2007,07,10,09,40,21.40
2007,07,10,09,41,21.40
2007,07,10,09,42,21.50
2007,07,10,09,43,21.60
2007,07,10,09,44,21.70
2007,07,10,09,45,21.80
2007,07,10,09,46,22.00
2007,07,10,09,47,22.20
2007,07,10,09,48,22.30
2007,07,10,09,49,22.40
2007,07,10,09,50,22.60
2007,07,10,09,51,22.70
2007,07,10,09,52,22.90
2007,07,10,09,53,23.00
2007,07,10,09,54,23.10
2007,07,10,09,55,23.20
2007,07,10,09,56,23.20
2007,07,10,09,57,23.30
2007,07,10,09,58,23.40
2007,07,10,09,59,23.50
2007,07,10,10,00,23.60
2007,07,10,10,01,23.60
2007,07,10,10,02,23.70
2007,07,10,10,03,23.80
2007,07,10,10,04,23.90
2007,07,10,10,05,24.00
2007,07,10,10,06,24.10
2007,07,10,10,07,24.10
2007,07,10,10,08,24.10
2007,07,10,10,09,24.10
2007,07,10,10,10,24.10
2007,07,10,10,11,24.20
2007,07,10,10,12,24.20
2007,07,10,10,13,24.20
2007,07,10,10,14,24.20
2007,07,10,10,15,24.20
2007,07,10,10,16,24.20
2007,07,10,10,17,24.30
2007,07,10,10,18,24.40
2007,07,10,10,19,24.40
2007,07,10,10,20,24.50
2007,07,10,10,21,24.50
2007,07,10,10,22,24.50
2007,07,10,10,23,24.50
2007,07,10,10,24,24.60
2007,07,10,10,25,24.60
2007,07,10,10,26,24.70
2007,07,10,10,27,24.70
2007,07,10,10,28,24.70
2007,07,10,10,29,24.70
2007,07,10,10,30,24.80
2007,07,10,10,31,24.80
2007,07,10,10,32,24.80
2007,07,10,10,33,24.80
2007,07,10,10,34,24.80
2007,07,10,10,35,24.70
2007,07,10,10,36,24.60
2007,07,10,10,37,24.60
2007,07,10,10,38,24.60
2007,07,10,10,39,24.70
2007,07,10,10,40,24.70
2007,07,10,10,41,24.80
2007,07,10,10,42,24.80
2007,07,10,10,43,24.80
2007,07,10,10,44,24.80
2007,07,10,10,45,24.80
2007,07,10,10,46,24.90
2007,07,10,10,47,24.90
2007,07,10,10,48,25.00
2007,07,10,10,49,25.10
2007,07,10,10,50,25.10
2007,07,10,10,51,25.00
2007,07,10,10,52,25.00
2007,07,10,10,53,24.90
2007,07,10,10,54,24.90
2007,07,10,10,55,25.00
2007,07,10,10,56,25.00
2007,07,10,10,57,25.00
2007,07,10,10,58,25.00
2007,07,10,10,59,25.00
2007,07,10,11,00,25.00
2007,07,10,11,01,25.00
2007,07,10,11,02,25.00
2007,07,10,11,03,25.00
2007,07,10,11,04,25.00
2007,07,10,11,05,25.00
2007,07,10,11,06,25.10
2007,07,10,11,07,25.10
2007,07,10,11,08,25.00
2007,07,10,11,09,25.00
2007,07,10,11,10,25.00
2007,07,10,11,11,25.10
2007,07,10,11,12,25.10
2007,07,10,11,13,25.10
2007,07,10,11,14,25.10
2007,07,10,11,15,25.10
2007,07,10,11,16,25.10
2007,07,10,11,17,25.10
2007,07,10,11,18,25.20
2007,07,10,11,19,25.20
2007,07,10,11,20,25.40
2007,07,10,11,21,25.50
2007,07,10,11,22,25.60
2007,07,10,11,23,25.70
2007,07,10,11,24,25.70
2007,07,10,11,25,25.80
2007,07,10,11,26,25.80
2007,07,10,11,27,25.70
2007,07,10,11,28,25.70
2007,07,10,11,29,25.60
2007,07,10,11,30,25.60
2007,07,10,11,31,25.60
2007,07,10,11,32,25.60
2007,07,10,11,33,25.70
2007,07,10,11,34,25.80
2007,07,10,11,35,25.80
2007,07,10,11,36,25.90
2007,07,10,11,37,25.90
2007,07,10,11,38,25.90
2007,07,10,11,39,25.90
2007,07,10,11,40,26.00
2007,07,10,11,41,26.10
2007,07,10,11,42,26.20
2007,07,10,11,43,26.30
2007,07,10,11,44,26.30
2007,07,10,11,45,26.20
2007,07,10,11,46,26.10
2007,07,10,11,47,26.10
2007,07,10,11,48,26.10
2007,07,10,11,49,26.10
2007,07,10,11,50,26.00
2007,07,10,11,51,25.90
2007,07,10,11,52,25.90
2007,07,10,11,53,25.90
2007,07,10,11,54,25.90
2007,07,10,11,55,25.90
2007,07,10,11,56,25.90
2007,07,10,11,57,25.90
2007,07,10,11,58,25.90
2007,07,10,11,59,25.90
2007,07,10,12,00,25.80
2007,07,10,12,01,25.80
2007,07,10,12,02,25.80
2007,07,10,12,03,25.80
2007,07,10,12,04,25.80
2007,07,10,12,05,25.70
2007,07,10,12,06,25.70
2007,07,10,12,07,25.70
2007,07,10,12,08,25.80
2007,07,10,12,09,25.80
2007,07,10,12,10,25.80
2007,07,10,12,11,25.80
2007,07,10,12,12,25.80
2007,07,10,12,13,25.80
2007,07,10,12,14,25.80
2007,07,10,12,15,25.90
2007,07,10,12,16,25.90
2007,07,10,12,17,26.00
2007,07,10,12,18,26.10
2007,07,10,12,19,26.10
2007,07,10,12,20,26.20
2007,07,10,12,21,26.30
2007,07,10,12,22,26.30
2007,07,10,12,23,26.40
2007,07,10,12,24,26.50
2007,07,10,12,25,26.60
2007,07,10,12,26,26.60
2007,07,10,12,27,26.70
2007,07,10,12,28,26.60
2007,07,10,12,29,26.60
2007,07,10,12,30,26.50
2007,07,10,12,31,26.40
2007,07,10,12,32,26.40
2007,07,10,12,33,26.40
2007,07,10,12,34,26.40
2007,07,10,12,35,26.40
2007,07,10,12,36,26.40
2007,07,10,12,37,26.30
2007,07,10,12,38,26.40
2007,07,10,12,39,26.30
2007,07,10,12,40,26.30
2007,07,10,12,41,26.30
2007,07,10,12,42,26.30
2007,07,10,12,43,26.30
2007,07,10,12,44,26.20
2007,07,10,12,45,26.10
2007,07,10,12,46,26.10
2007,07,10,12,47,26.10
2007,07,10,12,48,26.00
2007,07,10,12,49,25.90
2007,07,10,12,50,25.90
2007,07,10,12,51,25.90
2007,07,10,12,52,25.90
2007,07,10,12,53,26.00
2007,07,10,12,54,26.10
2007,07,10,12,55,26.20
2007,07,10,12,56,26.30
2007,07,10,12,57,26.40
2007,07,10,12,58,26.50
2007,07,10,12,59,26.60
2007,07,10,13,00,26.80
2007,07,10,13,01,26.80
2007,07,10,13,02,26.80
2007,07,10,13,03,26.80
2007,07,10,13,04,26.80
2007,07,10,13,05,26.80
2007,07,10,13,06,26.80
2007,07,10,13,07,26.80
2007,07,10,13,08,26.70
2007,07,10,13,09,26.70
2007,07,10,13,10,26.80
2007,07,10,13,11,26.80
2007,07,10,13,12,26.80
2007,07,10,13,13,26.80
2007,07,10,13,14,26.80
2007,07,10,13,15,26.80
2007,07,10,13,16,26.80
2007,07,10,13,17,26.80
2007,07,10,13,18,26.90
2007,07,10,13,19,26.90
2007,07,10,13,20,27.00
2007,07,10,13,21,27.10
2007,07,10,13,22,27.10
2007,07,10,13,23,27.20
2007,07,10,13,24,27.20
2007,07,10,13,25,27.10
2007,07,10,13,26,27.10
2007,07,10,13,27,27.20
2007,07,10,13,28,27.10
2007,07,10,13,29,27.10
2007,07,10,13,30,27.00
2007,07,10,13,31,26.90
2007,07,10,13,32,26.90
2007,07,10,13,33,27.00
2007,07,10,13,34,27.10
2007,07,10,13,35,27.10
2007,07,10,13,36,27.20
2007,07,10,13,37,27.20
2007,07,10,13,38,27.20
2007,07,10,13,39,27.30
2007,07,10,13,40,27.30
2007,07,10,13,41,27.50
2007,07,10,13,42,27.60
2007,07,10,13,43,27.70
2007,07,10,13,44,27.70
2007,07,10,13,45,27.70
2007,07,10,13,46,27.70
2007,07,10,13,47,27.60
2007,07,10,13,48,27.40
2007,07,10,13,49,27.20
2007,07,10,13,50,27.20
2007,07,10,13,51,27.20
2007,07,10,13,52,27.20
2007,07,10,13,53,27.20
2007,07,10,13,54,27.30
2007,07,10,13,55,27.30
2007,07,10,13,56,27.30
2007,07,10,13,57,27.30
2007,07,10,13,58,27.30
2007,07,10,13,59,27.30
2007,07,10,14,00,27.30
2007,07,10,14,01,27.30
2007,07,10,14,02,27.30
2007,07,10,14,03,27.20
2007,07,10,14,04,27.30
2007,07,10,14,05,27.30
2007,07,10,14,06,27.30
2007,07,10,14,07,27.40
2007,07,10,14,08,27.50
2007,07,10,14,09,27.60
2007,07,10,14,10,27.70
2007,07,10,14,11,27.70
2007,07,10,14,12,27.80
2007,07,10,14,13,27.90
2007,07,10,14,14,28.00
2007,07,10,14,15,28.00
2007,07,10,14,16,28.10
2007,07,10,14,17,28.20
2007,07,10,14,18,28.20
2007,07,10,14,19,28.30
2007,07,10,14,20,28.20
2007,07,10,14,21,28.20
2007,07,10,14,22,28.20
2007,07,10,14,23,28.20
2007,07,10,14,24,28.30
2007,07,10,14,25,28.30
2007,07,10,14,26,28.40
2007,07,10,14,27,28.40
2007,07,10,14,28,28.50
2007,07,10,14,29,28.60
2007,07,10,14,30,28.70
2007,07,10,14,31,28.70
2007,07,10,14,32,28.80
2007,07,10,14,33,28.90
2007,07,10,14,34,29.00
2007,07,10,14,35,29.00
2007,07,10,14,36,29.00
2007,07,10,14,37,29.10
2007,07,10,14,38,29.10
2007,07,10,14,39,29.20
2007,07,10,14,40,29.30
2007,07,10,14,41,29.30
2007,07,10,14,42,29.40
2007,07,10,14,43,29.50
2007,07,10,14,44,29.50
2007,07,10,14,45,29.50
2007,07,10,14,46,29.60
2007,07,10,14,47,29.60
2007,07,10,14,48,29.60
2007,07,10,14,49,29.60
2007,07,10,14,50,29.60
2007,07,10,14,51,29.60
2007,07,10,14,52,29.60
2007,07,10,14,53,29.60
2007,07,10,14,54,29.60
2007,07,10,14,55,29.60
2007,07,10,14,56,29.50
2007,07,10,14,57,29.50
2007,07,10,14,58,29.40
2007,07,10,14,59,29.40
2007,07,10,15,00,29.40
2007,07,10,15,01,29.40
2007,07,10,15,02,29.40
2007,07,10,15,03,29.30
2007,07,10,15,04,29.30
2007,07,10,15,05,29.40
2007,07,10,15,06,29.40
2007,07,10,15,07,29.40
2007,07,10,15,08,29.40
2007,07,10,15,09,29.30
2007,07,10,15,10,29.40
2007,07,10,15,11,29.40
2007,07,10,15,12,29.40
2007,07,10,15,13,29.50
2007,07,10,15,14,29.60
2007,07,10,15,15,29.60
2007,07,10,15,16,29.70
2007,07,10,15,17,29.80
2007,07,10,15,18,29.90
2007,07,10,15,19,30.10
2007,07,10,15,20,30.10
2007,07,10,15,21,30.10
2007,07,10,15,22,30.10
2007,07,10,15,23,30.10
2007,07,10,15,24,30.20
2007,07,10,15,25,30.20
2007,07,10,15,26,30.30
2007,07,10,15,27,30.30
2007,07,10,15,28,30.30
2007,07,10,15,29,30.30
2007,07,10,15,30,30.40
2007,07,10,15,31,30.40
2007,07,10,15,32,30.40
2007,07,10,15,33,30.40
2007,07,10,15,34,30.50
2007,07,10,15,35,30.60
2007,07,10,15,36,30.60
2007,07,10,15,37,30.70
2007,07,10,15,38,30.80
2007,07,10,15,39,30.90
2007,07,10,15,40,31.00
2007,07,10,15,41,31.00
2007,07,10,15,42,31.10
2007,07,10,15,43,31.10
2007,07,10,15,44,31.20
2007,07,10,15,45,31.30
2007,07,10,15,46,31.40
2007,07,10,15,47,31.40
2007,07,10,15,48,31.40
2007,07,10,15,49,31.50
2007,07,10,15,50,31.60
2007,07,10,15,51,31.70
2007,07,10,15,52,31.70
2007,07,10,15,53,31.70
2007,07,10,15,54,31.70
2007,07,10,15,55,31.70
2007,07,10,15,56,31.70
2007,07,10,15,57,31.70
2007,07,10,15,58,31.60
2007,07,10,15,59,31.50
2007,07,10,16,00,31.40
2007,07,10,16,01,31.30
2007,07,10,16,02,31.20
2007,07,10,16,03,31.20
2007,07,10,16,04,31.10
2007,07,10,16,05,31.20
2007,07,10,16,06,31.20
2007,07,10,16,07,31.10
2007,07,10,16,08,31.00
2007,07,10,16,09,30.90
2007,07,10,16,10,30.90
2007,07,10,16,11,31.00
2007,07,10,16,12,31.00
2007,07,10,16,13,31.10
2007,07,10,16,14,31.20
2007,07,10,16,15,31.30
2007,07,10,16,16,31.40
2007,07,10,16,17,31.40
2007,07,10,16,18,31.40
2007,07,10,16,19,31.40
2007,07,10,16,20,31.50
2007,07,10,16,21,31.50
2007,07,10,16,22,31.50
2007,07,10,16,23,31.60
2007,07,10,16,24,31.60
2007,07,10,16,25,31.60
2007,07,10,16,26,31.60
2007,07,10,16,27,31.60
2007,07,10,16,28,31.70
2007,07,10,16,29,31.70
2007,07,10,16,30,31.70
2007,07,10,16,31,31.80
2007,07,10,16,32,31.80
2007,07,10,16,33,31.80
2007,07,10,16,34,31.80
2007,07,10,16,35,31.90
2007,07,10,16,36,31.90
2007,07,10,16,37,31.80
2007,07,10,16,38,31.90
2007,07,10,16,39,31.90
2007,07,10,16,40,31.90
2007,07,10,16,41,31.90
2007,07,10,16,42,31.90
2007,07,10,16,43,31.80
2007,07,10,16,44,31.80
2007,07,10,16,45,31.80
2007,07,10,16,46,31.70
2007,07,10,16,47,31.70
2007,07,10,16,48,31.70
2007,07,10,16,49,31.80
2007,07,10,16,50,31.80
2007,07,10,16,51,31.80
2007,07,10,16,52,31.80
2007,07,10,16,53,31.80
2007,07,10,16,54,31.90
2007,07,10,16,55,31.90
2007,07,10,16,56,31.80
2007,07,10,16,57,31.80
2007,07,10,16,58,31.80
2007,07,10,16,59,31.80
2007,07,10,17,00,31.80
2007,07,10,17,01,31.70
2007,07,10,17,02,31.70
2007,07,10,17,03,31.70
2007,07,10,17,04,31.70
2007,07,10,17,05,31.60
2007,07,10,17,06,31.70
2007,07,10,17,07,31.70
2007,07,10,17,08,31.70
2007,07,10,17,09,31.80
2007,07,10,17,10,31.80
2007,07,10,17,11,31.90
2007,07,10,17,12,31.90
2007,07,10,17,13,31.90
2007,07,10,17,14,31.90
2007,07,10,17,15,31.90
2007,07,10,17,16,31.90
2007,07,10,17,17,31.90
2007,07,10,17,18,31.80
2007,07,10,17,19,31.80